Location: Columbia
(38.9520°N, 92.3340°W)
Time: 13:51:05
(UTC-06:00)

ISS - Visible Passes

Search period start: 23 January 2018 00:00
Search period end: 02 February 2018 00:00
Orbit: 402 x 407 km, 51.6° (Epoch: 23 January)

Date Brightness Start Highest point End Pass type
(mag) Time Alt. Az. Time Alt. Az. Time Alt. Az.
23 Jan -2.4 19:01:53 10° SSW 19:03:52 27° S 19:03:52 27° S visible
24 Jan -2.0 18:10:30 10° S 18:12:43 17° SE 18:14:09 14° E visible
24 Jan -1.0 19:45:48 10° WSW 19:46:50 18° W 19:46:50 18° W visible
25 Jan -4.0 18:53:19 10° SW 18:56:35 88° NW 18:57:01 64° NE visible
26 Jan -3.3 18:01:11 10° SSW 18:04:17 43° SE 18:07:07 12° ENE visible
26 Jan -1.3 19:38:13 10° W 19:39:47 19° WNW 19:39:47 19° WNW visible
27 Jan -2.7 18:45:21 10° WSW 18:48:24 37° NNW 18:49:47 24° NNE visible
28 Jan -3.6 17:52:44 10° WSW 17:55:58 70° NW 17:59:13 10° NE visible
28 Jan -1.1 19:31:01 10° NW 19:32:22 14° NNW 19:32:22 14° NNW visible
29 Jan -1.7 18:37:48 10° WNW 18:40:18 20° NNW 18:42:14 13° NNE visible
30 Jan -0.9 19:24:15 10° NNW 19:24:42 10° NNW 19:24:42 10° NNW visible
31 Jan -1.3 18:30:38 10° NW 18:32:18 13° NNW 18:33:59 10° NNE visible
